• In Russia
  • List of Countries
  • For 7 days
  • Water Temperature
  • Satellite Maps
  • Weather Map
  • Weather Widgets
  • user-avatar
    Login

    Hourly Weather Edeleny

    Today, 20 January, Saturday

    Time Temperature Precipitation Wind Pressure Humidity
    00:00 0°C° 0 mm 1 mps 746 mmHg 88%
    01:00 0°C° 0 mm 1 mps 746 mmHg 86%
    02:00 0°C° 0 mm 1 mps 746 mmHg 86%
    03:00 -1°C° 0 mm 1 mps 746 mmHg 86%
    04:00 -2°C° 0 mm 0 mps 746 mmHg 86%
    05:00 -2°C° 0 mm 0 mps 746 mmHg 87%
    06:00 -2°C° 0 mm 0 mps 746 mmHg 87%
    07:00 -2°C° 0 mm 0 mps 746 mmHg 87%
    08:00 0°C° 0 mm 1 mps 746 mmHg 83%
    09:00 +1°C° 0 mm 1 mps 746 mmHg 79%
    10:00 +2°C° 0 mm 1 mps 746 mmHg 75%
    11:00 +3°C° 0.1 mm 1 mps 746 mmHg 75%
    12:00 +3°C° 0.1 mm 1 mps 746 mmHg 76%
    13:00 +3°C° 0.1 mm 2 mps 746 mmHg 76%
    14:00 +2°C° 0 mm 2 mps 746 mmHg 80%
    15:00 +2°C° 0 mm 2 mps 745 mmHg 84%
    16:00 +2°C° 0 mm 1 mps 745 mmHg 88%
    17:00 +2°C° 0 mm 1 mps 745 mmHg 90%
    18:00 +1°C° 0 mm 1 mps 745 mmHg 92%
    19:00 0°C° 0 mm 1 mps 745 mmHg 93%
    20:00 0°C° 0.1 mm 1 mps 744 mmHg 93%
    21:00 0°C° 0.1 mm 1 mps 744 mmHg 93%
    22:00 +1°C° 0.1 mm 1 mps 744 mmHg 93%
    23:00 0°C° 0 mm 1 mps 744 mmHg 93%

    Tomorrow, 21 January, Sunday

    Time Temperature Precipitation Wind Pressure Humidity
    00:00 0°C° 0 mm 1 mps 743 mmHg 93%
    01:00 0°C° 0 mm 1 mps 743 mmHg 93%
    02:00 0°C° 0 mm 1 mps 743 mmHg 93%
    03:00 0°C° 0 mm 1 mps 742 mmHg 93%
    04:00 0°C° 0 mm 1 mps 742 mmHg 92%
    05:00 -2°C° 0.1 mm 2 mps 742 mmHg 92%
    06:00 -2°C° 0.1 mm 2 mps 741 mmHg 92%
    07:00 -2°C° 0.1 mm 2 mps 741 mmHg 91%
    08:00 -1°C° 0.3 mm 2 mps 741 mmHg 89%
    09:00 -1°C° 0.3 mm 3 mps 741 mmHg 88%
    10:00 -1°C° 0.3 mm 3 mps 741 mmHg 86%
    11:00 0°C° 0.5 mm 3 mps 741 mmHg 85%
    12:00 0°C° 0.5 mm 3 mps 741 mmHg 84%
    13:00 0°C° 0.5 mm 3 mps 741 mmHg 84%
    14:00 0°C° 0.4 mm 3 mps 741 mmHg 85%
    15:00 +1°C° 0.4 mm 2 mps 741 mmHg 87%
    16:00 +1°C° 0.4 mm 2 mps 742 mmHg 88%
    17:00 -1°C° 0.2 mm 2 mps 742 mmHg 89%
    18:00 -1°C° 0.2 mm 2 mps 743 mmHg 90%
    19:00 -1°C° 0.2 mm 2 mps 743 mmHg 91%
    20:00 -1°C° 0.1 mm 2 mps 744 mmHg 91%
    21:00 -1°C° 0.1 mm 2 mps 744 mmHg 90%
    22:00 -2°C° 0.1 mm 2 mps 744 mmHg 90%
    23:00 -2°C° 0 mm 2 mps 745 mmHg 89%

    Day after tomorrow, 22 January, Monday

    Time Temperature Precipitation Wind Pressure Humidity
    00:00 -2°C° 0 mm 3 mps 745 mmHg 88%
    01:00 -2°C° 0 mm 3 mps 745 mmHg 87%
    02:00 -2°C° 0 mm 3 mps 746 mmHg 87%
    03:00 -2°C° 0 mm 3 mps 746 mmHg 86%
    04:00 -2°C° 0 mm 3 mps 746 mmHg 86%
    05:00 -4°C° 0 mm 3 mps 746 mmHg 86%
    06:00 -4°C° 0 mm 3 mps 747 mmHg 85%
    07:00 -4°C° 0 mm 3 mps 747 mmHg 85%
    08:00 -2°C° 0 mm 3 mps 747 mmHg 82%
    09:00 -1°C° 0 mm 3 mps 748 mmHg 78%
    10:00 -1°C° 0 mm 4 mps 748 mmHg 75%
    11:00 -1°C° 0 mm 4 mps 748 mmHg 73%
    12:00 +1°C° 0 mm 3 mps 748 mmHg 72%
    13:00 +1°C° 0 mm 3 mps 748 mmHg 71%
    14:00 0°C° 0 mm 3 mps 748 mmHg 73%
    15:00 0°C° 0 mm 3 mps 748 mmHg 76%
    16:00 -1°C° 0 mm 2 mps 749 mmHg 78%
    17:00 -2°C° 0 mm 2 mps 749 mmHg 80%
    18:00 -2°C° 0 mm 2 mps 750 mmHg 81%
    19:00 -3°C° 0 mm 2 mps 750 mmHg 83%
    20:00 -3°C° 0 mm 2 mps 751 mmHg 84%
    21:00 -3°C° 0 mm 2 mps 751 mmHg 85%
    22:00 -4°C° 0 mm 2 mps 751 mmHg 85%
    23:00 -4°C° 0 mm 2 mps 752 mmHg 85%

    23 January, Tuesday

    Time Temperature Precipitation Wind Pressure Humidity
    00:00 -2°C° 0 mm 1 mps 752 mmHg 86%
    01:00 -2°C° 0 mm 1 mps 752 mmHg 86%
    02:00 -2°C° 0 mm 1 mps 752 mmHg 86%
    03:00 -2°C° 0 mm 1 mps 753 mmHg 85%
    04:00 -2°C° 0 mm 1 mps 753 mmHg 85%
    05:00 -3°C° 0 mm 1 mps 753 mmHg 85%
    06:00 -3°C° 0 mm 1 mps 754 mmHg 85%
    07:00 -3°C° 0 mm 1 mps 754 mmHg 85%
    08:00 -2°C° 0 mm 1 mps 755 mmHg 81%
    09:00 -1°C° 0 mm 1 mps 755 mmHg 78%
    10:00 +1°C° 0 mm 1 mps 756 mmHg 74%
    11:00 +1°C° 0 mm 1 mps 756 mmHg 72%
    12:00 +2°C° 0 mm 1 mps 756 mmHg 70%
    13:00 +3°C° 0 mm 1 mps 756 mmHg 68%
    14:00 +1°C° 0 mm 0 mps 757 mmHg 72%
    15:00 0°C° 0 mm 0 mps 757 mmHg 75%
    16:00 -1°C° 0 mm 0 mps 757 mmHg 79%
    17:00 -1°C° 0 mm 0 mps 758 mmHg 81%
    18:00 -2°C° 0 mm 0 mps 758 mmHg 82%
    19:00 -2°C° 0 mm 0 mps 759 mmHg 84%
    20:00 -2°C° 0 mm 0 mps 759 mmHg 84%
    21:00 -2°C° 0 mm 0 mps 760 mmHg 84%
    22:00 -3°C° 0 mm 0 mps 760 mmHg 84%
    23:00 -3°C° 0 mm 0 mps 760 mmHg 84%

    24 January, Wednesday

    Time Temperature Precipitation Wind Pressure Humidity
    00:00 -3°C° 0 mm 0 mps 761 mmHg 85%
    01:00 -3°C° 0 mm 0 mps 761 mmHg 85%
    02:00 -3°C° 0 mm 0 mps 761 mmHg 85%
    03:00 -3°C° 0 mm 0 mps 761 mmHg 85%
    04:00 -3°C° 0 mm 0 mps 761 mmHg 86%
    05:00 -3°C° 0 mm 0 mps 761 mmHg 86%
    06:00 -3°C° 0 mm 0 mps 762 mmHg 87%
    07:00 -3°C° 0 mm 0 mps 762 mmHg 87%
    08:00 -2°C° 0 mm 0 mps 762 mmHg 84%
    09:00 -1°C° 0 mm 0 mps 762 mmHg 81%
    10:00 +1°C° 0 mm 1 mps 762 mmHg 77%
    11:00 +1°C° 0 mm 1 mps 762 mmHg 76%
    12:00 +2°C° 0 mm 1 mps 762 mmHg 75%
    13:00 +2°C° 0 mm 1 mps 762 mmHg 73%
    14:00 +2°C° 0 mm 1 mps 762 mmHg 76%
    15:00 +1°C° 0 mm 1 mps 762 mmHg 79%
    16:00 +1°C° 0 mm 1 mps 761 mmHg 83%
    17:00 0°C° 0 mm 1 mps 762 mmHg 84%
    18:00 0°C° 0 mm 1 mps 762 mmHg 85%
    19:00 0°C° 0 mm 1 mps 762 mmHg 86%
    20:00 0°C° 0 mm 1 mps 762 mmHg 87%
    21:00 -1°C° 0 mm 1 mps 762 mmHg 87%
    22:00 -1°C° 0 mm 1 mps 762 mmHg 87%
    23:00 -1°C° 0 mm 1 mps 762 mmHg 88%

    25 January, Thursday

    Time Temperature Precipitation Wind Pressure Humidity
    00:00 -2°C° 0 mm 0 mps 761 mmHg 88%
    01:00 -2°C° 0 mm 0 mps 761 mmHg 89%
    02:00 -2°C° 0 mm 0 mps 761 mmHg 89%
    03:00 -2°C° 0 mm 0 mps 761 mmHg 90%
    04:00 -3°C° 0 mm 0 mps 760 mmHg 90%
    05:00 -3°C° 0 mm 0 mps 760 mmHg 91%
    06:00 -3°C° 0 mm 0 mps 760 mmHg 91%
    07:00 -2°C° 0 mm 1 mps 760 mmHg 91%
    08:00 -1°C° 0 mm 1 mps 760 mmHg 87%
    09:00 0°C° 0 mm 1 mps 760 mmHg 83%
    10:00 +1°C° 0 mm 1 mps 760 mmHg 79%
    11:00 +2°C° 0 mm 1 mps 759 mmHg 77%
    12:00 +2°C° 0 mm 1 mps 759 mmHg 74%
    13:00 +3°C° 0 mm 1 mps 758 mmHg 71%
    14:00 +2°C° 0 mm 1 mps 758 mmHg 74%
    15:00 +2°C° 0 mm 1 mps 758 mmHg 77%
    16:00 +1°C° 0 mm 1 mps 757 mmHg 80%
    17:00 +1°C° 0 mm 1 mps 757 mmHg 81%
    18:00 0°C° 0 mm 1 mps 757 mmHg 81%
    19:00 0°C° 0 mm 1 mps 757 mmHg 82%
    20:00 -1°C° 0 mm 1 mps 757 mmHg 81%
    21:00 -1°C° 0 mm 1 mps 757 mmHg 81%
    22:00 -1°C° 0 mm 1 mps 757 mmHg 80%
    23:00 -1°C° 0 mm 1 mps 756 mmHg 80%
    Show more